Miscellaneous Local Product
Issued by NWS Hastings, NE

Home | Current Version | Previous Version | Text Only | Print | Product List | Glossary Off
Versions: 1 2 3 4 5 6 7 8 9 10 11 12 13 14 15 16 17 18 19 20 21 22 23 24 25 26 27 28 29 30 31 32 33 34 35 36 37 38 39 40 41 42 43 44 45 46 47 48 49 50

000
AXUS43 KGID 201102
MISGRI

GID CWA HOURLY WEATHER ROUNDUP
NATIONAL WEATHER SERVICE HASTINGS NE
600 AM CDT WED SEP 20 2017

NOTE: "FAIR" INDICATES FEW OR NO CLOUDS BELOW 12,000 FEET WITH NO
SIGNIFICANT WEATHER AND/OR OBSTRUCTIONS TO VISIBILITY.

...SOUTH CENTRAL NEBRASKA...

CITY           SKY/WX    TMP DP  RH WIND       PRES   REMARKS
GRAND ISLAND   CLEAR     53  50  89 NW6       29.80R
HASTINGS       CLEAR     55  48  77 N9        29.80R
KEARNEY        CLEAR     53  46  77 NW8       29.83R
ORD            CLEAR     49  45  86 NW6       29.81R
YORK           CLEAR     57  52  82 NW8       29.76R
AURORA         CLEAR     54  51  87 NW9       29.79R
LEXINGTON      CLEAR     46  43  86 NW5       29.85R
HOLDREGE       CLEAR     50  45  81 NW7       29.83R
HEBRON         CLEAR     63  51  65 NW8       29.75R

...NEBRASKA PANHANDLE...

CITY           SKY/WX    TMP DP  RH WIND       PRES   REMARKS
CHADRON        CLEAR     43  33  68 S8        29.85R
ALLIANCE       PTCLDY    50  32  50 NW8       29.87R
SCOTTSBLUFF    CLOUDY    52  29  41 W10       29.89R
SIDNEY         CLEAR     52  29  41 N9        29.91R

...WESTERN AND NORTH CENTRAL NEBRASKA...

CITY           SKY/WX    TMP DP  RH WIND       PRES   REMARKS
VALENTINE      CLOUDY    52  46  80 CALM      29.85R
AINSWORTH      PTCLDY    50  47  91 W5        29.85R
ONEILL         CLEAR     50  48  93 NW8       29.81S
BROKEN BOW     CLEAR     46  41  82 NW6       29.84R
IMPERIAL       CLOUDY    46  34  62 W5        29.91R
NORTH PLATTE   PTCLDY    41  38  89 NW5       29.88R
MCCOOK         CLOUDY    45  36  70 NW10      29.87R

...EASTERN NEBRASKA...

CITY           SKY/WX    TMP DP  RH WIND       PRES   REMARKS
NORFOLK        PTCLDY    54  52  93 W3        29.77R
SO SIOUX CITY  MOCLDY    59  57  93 NW7       29.73R
TEKAMAH        PTCLDY    62  55  77 N6        29.70R
COLUMBUS       CLEAR     56  53  90 W3        29.76R
ALBION         CLEAR     54  49  86 NW7       29.79R
OMAHA EPPLEY   CLOUDY    70  60  70 N10       29.67R
OFFUTT AFB     MOCLDY    70  68  94 NW7       29.65R
MILLARD        CLOUDY    73  61  67 N6        29.68R
LINCOLN        CLEAR     66  50  56 N13       29.71R
NEBRASKA CITY  CLEAR     73  73 100 S8        29.67S
BEATRICE       CLEAR     65  60  82 NW5       29.71R
FALLS CITY     CLEAR     76  69  79 S8        29.68S

...NORTHERN KANSAS...

CITY           SKY/WX    TMP DP  RH WIND       PRES   REMARKS
GOODLAND       CLOUDY    42  34  73 NW9       29.93R
HILL CITY      CLEAR     54  37  52 NW8       29.84R
NORTON         SUNNY     50  34  53 W13       29.84R
PHILLIPSBURG   CLEAR     55  43  62 NW9       29.82R
SMITH CENTER   CLEAR     54  46  76 NW8       29.79R
RUSSELL        CLEAR     59  45  59 N13       29.75R
CONCORDIA      PTCLDY    63  53  70 NW9       29.72R
SALINA         CLEAR     69  51  52 W9        29.71R
TOPEKA         PTCLDY    77  71  82 SW9G18    29.73R



USA.gov is the U.S. government's official web portal to all federal, state and local government web resources and services.